Location: Ash Shall?l al Awwal
(24.0167°N, 32.8667°E)
Time: 11:26:12
(UTC+00:00)

IRS-1C Rocket - Pass Details

Date: 02 March 2021
Orbit: 800 x 806 km, 99.0° (Epoch: 15 April)

Event Time Altitude Azimuth Distance (km) Brightness Sun altitude
Rises 16:43:05 0° 171° (S) 3,296 7.2 -12.5°
Reaches altitude 10° 16:45:24 10° 173° (S) 2,369 6.5 -13.0°
Maximum altitude 16:50:38 73° 257° (WSW) 840 4.4 -14.2°
Drops below altitude 10° 16:55:53 10° 342° (NNW) 2,382 6.8 -15.4°
Sets 16:58:14 0° 345° (NNW) 3,316 7.5 -15.9°
